Погода в Краснояре

Россия / Пермский край     56°28′19″N   55°25′16″E
темп.,
°C
ветер,
м/с
пор.,
м/с
влажн.,
%
обл.,
%
осадки,
мм/ч
давл.,
гПа
погр.,
м
19 апреля, пн
пн1923:00+2всв713465 0.0 1029721
02:00−1всв713477 0.0 1030578
05:00−2всв612477 0.0 1032610
08:00−1в711423 0.0 1033842
11:00+2в79270 0.0 10331315
14:00+5в78250 0.0 10331629
17:00+5в67260 0.0 10321743
20:00+3всв47410 0.0 1033162
20 апреля, вт
вт2023:000всв35500 0.0 103478
02:00−1в22500 0.0 103433
05:00−1в11521 0.0 103610
08:00+1всв114317 0.0 1036139
11:00+5в01315 0.0 1035961
14:00+7з11295 0.0 10341347
17:00+8сз22295 0.0 10331363
20:00+6с11420 0.0 103210
21 апреля, ср
ср2123:00+3ссв11480 0.0 103210
02:00+2всв11520 0.0 103210
05:00+1вюв11560 0.0 103310
08:00+3вюв23531 0.0 1033126
11:00+8юв443954 0.0 1032742
14:00+11ююв463383 0.0 10301285
17:00+12ююв563367 0.0 10291276
20:00+8ююв3649100 0.0 1029110
22 апреля, чт
чт2223:00+6юв335396 0.0 102952
02:00+5юв3458100 0.0 102971
05:00+5ююв41357100 0.0 1029377
08:00+5ю51363100 0.0 1029793
11:00+7ю8126598 0.0 10291161
14:00+8ююз81271100 0.1 10301250
17:00+7ю81175100 0.2 10301027
20:00+5ююз51178100 0.0 1031799
23 апреля, пт
пт2323:00+4ю6997100 0.4 1030705
02:00+2ю51197100 2.6 1030501
05:00+3ю41097100 4.0 1030767
08:00+3ююв4797100 1.8 1030603
11:00+3ю2697100 2.7 1030643
14:00+5юв2494100 0.1 1029620
17:00+5ююв2491100 0.2 1028561
20:00+5вюв2294100 0.1 102873